Weather History for Bainbridge, GA

Change the Weather History Date:

Saturday, October 1, 2011

  Actual Average (KMAI) Record (KMAI)
Temperature  
Mean Temperature 65 °F 74 °F  
Max Temperature 77 °F 85 °F 91 °F (2006)
Min Temperature 53 °F 63 °F 48 °F (2001)
Degree Days  
Heating Degree Days 0    
Month to date heating degree days  
Since 1 July heating degree days  
Cooling Degree Days 0    
Month to date cooling degree days  
Year to date cooling degree days  
Growing Degree Days 15 (Base 50)    
Moisture  
Dew Point 46 °F    
Average Humidity 50    
Maximum Humidity 88    
Minimum Humidity 29    
Precipitation  
Precipitation 0.00 in 0.08 in 0.15 in (2012)
Month to date precipitation 0.08  
Year to date precipitation 42.21  
Sea Level Pressure  
Sea Level Pressure 29.98 in    
Wind  
Wind Speed 7 mph (NNW)    
Max Wind Speed 20 mph    
Max Gust Speed 24 mph    
Visibility 10 miles    
Events      
T = Trace of Precipitation, MM = Missing Value Source: NWS Daily Summary

Daily Weather History Graph

Daily Weather History Graph

Search for Another Location

Airport:

Trip Planner

Search our weather history database for the weather conditions in past years. The results will help you decide how hot, cold, wet, or windy it might be!

Date:

Astronomy

Oct. 01, 2011 Rise Set
Actual Time 7:32 AM EDT 7:24 PM EDT
Civil Twilight 7:07 AM EDT 7:48 PM EDT
Nautical Twilight 6:39 AM EDT 8:16 PM EDT
Astronomical Twilight 6:11 AM EDT 8:44 PM EDT
Moon 12:14 PM EDT (10/1) 10:43 PM EDT (10/1)
Length of Visible Light 12h 40m
Length of Day
11h 52m
Waxing Crescent, 24% of the Moon is Illuminated
Oct 1
Waxing Crescent
Oct 3
First Quarter
Oct 11
Full
Oct 19
Last Quarter
Oct 26
New

Hourly Weather History & Observations

Time (EDT) Temp. Dew Point Humidity Pressure Visibility Wind Dir Wind Speed Gust Speed Precip Events Conditions
12:15 AM 64.4 °F 46.4 °F 52% 29.91 in 10.0 mi NNW 5.8 mph - N/A   Clear
12:35 AM 64.4 °F 46.4 °F 52% 29.91 in 10.0 mi NNW 6.9 mph - N/A   Clear
12:55 AM 64.4 °F 46.4 °F 52% 29.91 in 10.0 mi North 5.8 mph - N/A   Clear
1:15 AM 62.6 °F 46.4 °F 55% 29.92 in 10.0 mi NNW 3.5 mph - N/A   Clear
1:35 AM 62.6 °F 48.2 °F 59% 29.92 in 10.0 mi Calm Calm - N/A   Clear
1:55 AM 60.8 °F 46.4 °F 59% 29.92 in 10.0 mi North 5.8 mph - N/A   Clear
2:15 AM 60.8 °F 46.4 °F 59% 29.92 in 10.0 mi North 4.6 mph - N/A   Clear
2:35 AM 60.8 °F 46.4 °F 59% 29.92 in 10.0 mi North 6.9 mph - N/A   Clear
2:55 AM 60.8 °F 46.4 °F 59% 29.93 in 10.0 mi NNW 4.6 mph - N/A   Clear
3:15 AM 60.8 °F 48.2 °F 63% 29.94 in 10.0 mi WNW 3.5 mph - N/A   Clear
3:35 AM 59.0 °F 50.0 °F 72% 29.94 in 10.0 mi WNW 5.8 mph - N/A   Clear
3:55 AM 57.2 °F 50.0 °F 77% 29.95 in 10.0 mi West 4.6 mph - N/A   Clear
4:15 AM 55.4 °F 50.0 °F 82% 29.95 in 10.0 mi NNW 3.5 mph - N/A   Clear
4:35 AM 59.0 °F 48.2 °F 67% 29.95 in 10.0 mi North 4.6 mph - N/A   Clear
5:15 AM 57.2 °F 48.2 °F 72% 29.95 in 10.0 mi North 3.5 mph - N/A   Clear
5:35 AM 57.2 °F 48.2 °F 72% 29.95 in 10.0 mi NNW 4.6 mph - N/A   Clear
5:55 AM 57.2 °F 48.2 °F 72% 29.96 in 10.0 mi Calm Calm - N/A   Clear
6:15 AM 53.6 °F 50.0 °F 88% 29.96 in 10.0 mi North 4.6 mph - N/A   Clear
6:35 AM 55.4 °F 48.2 °F 77% 29.97 in 10.0 mi NNW 6.9 mph - N/A   Clear
6:55 AM 55.4 °F 48.2 °F 77% 29.98 in 10.0 mi NNW 5.8 mph - N/A   Clear
7:15 AM 53.6 °F 48.2 °F 82% 29.98 in 10.0 mi North 5.8 mph - N/A   Clear
7:35 AM 53.6 °F 46.4 °F 77% 29.99 in 10.0 mi NNW 4.6 mph - N/A   Clear
7:55 AM 53.6 °F 46.4 °F 77% 30.00 in 10.0 mi North 4.6 mph - N/A   Clear
8:15 AM 55.4 °F 48.2 °F 77% 30.00 in 10.0 mi Calm Calm - N/A   Clear
8:35 AM 57.2 °F 48.2 °F 72% 30.00 in 10.0 mi North 4.6 mph - N/A   Clear
8:55 AM 59.0 °F 50.0 °F 72% 30.01 in 10.0 mi NNW 6.9 mph - N/A   Clear
9:15 AM 60.8 °F 48.2 °F 63% 30.02 in 10.0 mi NNW 6.9 mph - N/A   Clear
9:35 AM 62.6 °F 46.4 °F 55% 30.03 in 10.0 mi NNE 6.9 mph - N/A   Clear
10:15 AM 68.0 °F 44.6 °F 43% 30.04 in 10.0 mi NNE 10.4 mph - N/A   Clear
10:35 AM 69.8 °F 44.6 °F 40% 30.04 in 10.0 mi NNE 13.8 mph 21.9 mph N/A   Clear
10:55 AM 69.8 °F 42.8 °F 38% 30.04 in 10.0 mi NE 8.1 mph 17.3 mph N/A   Clear
11:15 AM 69.8 °F 41.0 °F 35% 30.04 in 10.0 mi NE 15.0 mph 23.0 mph N/A   Clear
11:35 AM 71.6 °F 42.8 °F 35% 30.04 in 10.0 mi NNE 12.7 mph 24.2 mph N/A   Clear
11:55 AM 71.6 °F 42.8 °F 35% 30.03 in 10.0 mi NNE 18.4 mph 24.2 mph N/A   Clear
12:15 PM 71.6 °F 42.8 °F 35% 30.03 in 10.0 mi North 8.1 mph 20.7 mph N/A   Clear
12:35 PM 73.4 °F 44.6 °F 36% 30.03 in 10.0 mi North 16.1 mph 20.7 mph N/A   Clear
12:55 PM 73.4 °F 42.8 °F 33% 30.02 in 10.0 mi North 11.5 mph 20.7 mph N/A   Clear
1:15 PM 73.4 °F 44.6 °F 36% 30.01 in 10.0 mi NNW 13.8 mph 20.7 mph N/A   Clear
1:35 PM 73.4 °F 44.6 °F 36% 30.01 in 10.0 mi North 11.5 mph 21.9 mph N/A   Clear
1:55 PM 75.2 °F 42.8 °F 31% 30.00 in 10.0 mi North 19.6 mph 24.2 mph N/A   Clear
2:15 PM 77.0 °F 44.6 °F 32% 30.00 in 10.0 mi North 15.0 mph - N/A   Clear
2:35 PM 77.0 °F 44.6 °F 32% 29.99 in 10.0 mi North 13.8 mph 20.7 mph N/A   Clear
2:55 PM 77.0 °F 44.6 °F 32% 29.98 in 10.0 mi North 17.3 mph 21.9 mph N/A   Clear
3:15 PM 77.0 °F 44.6 °F 32% 29.98 in 10.0 mi North 8.1 mph 23.0 mph N/A   Clear
3:35 PM 77.0 °F 44.6 °F 32% 29.97 in 10.0 mi NW 16.1 mph 21.9 mph N/A   Clear
3:55 PM 77.0 °F 44.6 °F 32% 29.97 in 10.0 mi NW 11.5 mph 19.6 mph N/A   Clear
4:15 PM 77.0 °F 44.6 °F 32% 29.97 in 10.0 mi North 10.4 mph 19.6 mph N/A   Clear
4:35 PM 77.0 °F 44.6 °F 32% 29.97 in 10.0 mi NW 15.0 mph 19.6 mph N/A   Clear
4:55 PM 77.0 °F 42.8 °F 29% 29.97 in 10.0 mi NW 16.1 mph 19.6 mph N/A   Clear
5:15 PM 77.0 °F 44.6 °F 32% 29.97 in 10.0 mi North 9.2 mph 16.1 mph N/A   Clear
5:35 PM 75.2 °F 42.8 °F 31% 29.97 in 10.0 mi NNW 13.8 mph 18.4 mph N/A   Clear
5:55 PM 73.4 °F 42.8 °F 33% 29.97 in 10.0 mi NNW 13.8 mph 20.7 mph N/A   Clear
6:15 PM 73.4 °F 42.8 °F 33% 29.98 in 10.0 mi NNW 10.4 mph - N/A   Clear
6:35 PM 73.4 °F 42.8 °F 33% 29.98 in 10.0 mi North 10.4 mph 16.1 mph N/A   Clear
6:55 PM 71.6 °F 42.8 °F 35% 29.98 in 10.0 mi North 8.1 mph - N/A   Clear
7:15 PM 71.6 °F 41.0 °F 33% 29.99 in 10.0 mi NNW 6.9 mph - N/A   Clear
7:35 PM 69.8 °F 42.8 °F 38% 30.00 in 10.0 mi NNW 4.6 mph - N/A   Clear
7:55 PM 68.0 °F 42.8 °F 40% 30.00 in 10.0 mi NNW 4.6 mph - N/A   Clear
8:15 PM 68.0 °F 41.0 °F 37% 30.01 in 10.0 mi North 6.9 mph - N/A   Clear
8:35 PM 66.2 °F 41.0 °F 40% 30.02 in 10.0 mi North 6.9 mph - N/A   Clear
8:55 PM 64.4 °F 41.0 °F 42% 30.03 in 10.0 mi North 5.8 mph - N/A   Clear
9:15 PM 62.6 °F 41.0 °F 45% 30.03 in 10.0 mi North 5.8 mph - N/A   Clear
9:35 PM 62.6 °F 41.0 °F 45% 30.05 in 10.0 mi North 4.6 mph - N/A   Clear
10:15 PM 62.6 °F 42.8 °F 48% 30.06 in 10.0 mi NNW 4.6 mph - N/A   Clear
10:35 PM 60.8 °F 42.8 °F 52% 30.07 in 10.0 mi North 6.9 mph - N/A   Clear
10:55 PM 60.8 °F 42.8 °F 52% 30.07 in 10.0 mi North 5.8 mph - N/A   Clear
11:15 PM 59.0 °F 42.8 °F 55% 30.07 in 10.0 mi North 5.8 mph - N/A   Clear
11:35 PM 59.0 °F 42.8 °F 55% 30.08 in 10.0 mi Calm Calm - N/A   Clear
11:55 PM 57.2 °F 42.8 °F 59% 30.08 in 10.0 mi North 4.6 mph - N/A   Clear